Weather History for Nantucket, MA

Change the Weather History Date:

Wednesday, June 29, 2011

  Actual Average Record
Temperature  
Mean Temperature 68 °F -  
Max Temperature 73 °F 73 °F 89 °F (1969)
Min Temperature 62 °F 58 °F 47 °F (1967)
Cooling Degree Days 2    
Growing Degree Days 18 (Base 50)    
Moisture  
Dew Point 64 °F    
Average Humidity 92    
Maximum Humidity 100    
Minimum Humidity 78    
Precipitation  
Precipitation 0.06 in - - ()
Sea Level Pressure  
Sea Level Pressure 29.82 in    
Wind  
Wind Speed 7 mph (SSW)    
Max Wind Speed 15 mph    
Max Gust Speed 22 mph    
Visibility 5 miles    
Events Fog , Rain    
Averages and records for this station are not official NWS values.
T = Trace of Precipitation, MM = Missing Value Source: NWS Daily Summary

Daily Weather History Graph

Daily Weather History Graph

Search for Another Location

Airport:

Trip Planner

Search our weather history database for the weather conditions in past years. The results will help you decide how hot, cold, wet, or windy it might be!

Date:

Astronomy

Jun. 29, 2011 Rise Set
Actual Time 5:09 AM EDT 8:17 PM EDT
Civil Twilight 4:36 AM EDT 8:51 PM EDT
Nautical Twilight 3:52 AM EDT 9:34 PM EDT
Astronomical Twilight 3:01 AM EDT 10:25 PM EDT
Moon 3:26 AM EDT (6/29) 6:56 PM EDT (6/29)
Length of Visible Light 16h 14m
Length of Day
15h 07m
Waning Crescent, 3% of the Moon is Illuminated
Jun 29
Waning Crescent
Jul 1
New
Jul 8
First Quarter
Jul 15
Full
Jul 23
Last Quarter

Hourly Weather History & Observations

Time (EDT) Temp. Dew Point Humidity Pressure Visibility Wind Dir Wind Speed Gust Speed Precip Events Conditions
12:21 AM 62.6 °F 62.6 °F 100% 29.87 in 0.5 mi South 4.6 mph - N/A Fog Fog
12:39 AM 64.4 °F 62.6 °F 94% 29.87 in 0.2 mi South 6.9 mph - N/A Fog Fog
12:53 AM 64.0 °F 63.0 °F 96% 29.86 in 0.2 mi SSW 5.8 mph - N/A Fog Fog
1:53 AM 64.0 °F 64.0 °F 100% 29.86 in 0.2 mi South 5.8 mph - N/A Fog Fog
2:53 AM 64.9 °F 64.9 °F 100% 29.84 in 0.2 mi Calm Calm - N/A Fog Fog
3:19 AM 64.4 °F 64.4 °F 100% 29.83 in 0.5 mi South 3.5 mph - N/A Fog Fog
3:32 AM 64.4 °F 64.4 °F 100% 29.82 in 0.2 mi SSE 4.6 mph - N/A Fog Fog
3:53 AM 64.0 °F 64.0 °F 100% 29.82 in 0.2 mi Calm Calm - N/A Fog Fog
4:53 AM 64.0 °F 64.0 °F 100% 29.83 in 0.2 mi Calm Calm - N/A Fog Fog
5:53 AM 64.9 °F 64.0 °F 97% 29.85 in 0.2 mi Calm Calm - N/A Fog Fog
6:53 AM 64.0 °F 63.0 °F 96% 29.82 in 0.2 mi SSE 13.8 mph - 0.06 in Fog , Rain Light Rain
7:00 AM 64.4 °F 64.4 °F 100% 29.82 in 0.5 mi SSE 12.7 mph - 0.00 in Fog , Rain Light Rain
7:07 AM 64.4 °F 64.4 °F 100% 29.81 in 1.0 mi SSE 11.5 mph - 0.00 in Rain Light Rain
7:10 AM 64.4 °F 64.4 °F 100% 29.80 in 2.0 mi South 13.8 mph - 0.00 in Rain Light Rain
7:17 AM 66.2 °F 64.4 °F 94% 29.80 in 4.0 mi South 12.7 mph - 0.01 in Rain Rain
7:53 AM 68.0 °F 64.4 °F 88% 29.79 in 10.0 mi SSE 9.2 mph - N/A   Partly Cloudy
8:53 AM 66.0 °F 64.0 °F 93% 29.82 in 10.0 mi SW 6.9 mph - N/A   Clear
9:46 AM 68.0 °F 64.4 °F 88% 29.81 in 10.0 mi SW 9.2 mph - N/A   Scattered Clouds
9:53 AM 68.0 °F 66.0 °F 93% 29.81 in 9.0 mi WSW 9.2 mph - N/A   Mostly Cloudy
10:42 AM 69.8 °F 68.0 °F 94% 29.81 in 6.0 mi SW 8.1 mph - N/A   Mostly Cloudy
10:47 AM 66.2 °F 66.2 °F 100% 29.82 in 0.5 mi SSW 6.9 mph - N/A Fog Fog
10:53 AM 66.9 °F 66.0 °F 97% 29.82 in 0.5 mi SSW 6.9 mph - N/A Fog Fog
11:23 AM 66.2 °F 64.4 °F 94% 29.84 in 1.0 mi SSW 9.2 mph - N/A   Overcast
11:40 AM 64.4 °F 64.4 °F 100% 29.84 in 0.2 mi SSW 9.2 mph - N/A Fog Fog
11:53 AM 66.0 °F 64.0 °F 93% 29.84 in 0.2 mi SSW 10.4 mph - N/A Fog Fog
12:53 PM 69.1 °F 66.9 °F 93% 29.82 in 5.0 mi SW 13.8 mph - N/A   Scattered Clouds
1:53 PM 72.0 °F 64.9 °F 78% 29.81 in 10.0 mi WSW 12.7 mph - N/A   Clear
2:53 PM 73.0 °F 66.0 °F 79% 29.82 in 10.0 mi WSW 12.7 mph - N/A   Partly Cloudy
3:07 PM 71.6 °F 66.2 °F 83% 29.81 in 10.0 mi SSW 10.4 mph - N/A   Mostly Cloudy
3:28 PM 71.6 °F 64.4 °F 78% 29.81 in 10.0 mi SW 9.2 mph - N/A   Scattered Clouds
3:53 PM 69.1 °F 64.0 °F 84% 29.81 in 10.0 mi SSW 8.1 mph - N/A   Clear
4:53 PM 70.0 °F 66.0 °F 87% 29.80 in 10.0 mi SW 11.5 mph - N/A   Clear
5:53 PM 69.1 °F 64.9 °F 87% 29.79 in 10.0 mi WSW 10.4 mph - N/A   Clear
6:53 PM 69.1 °F 64.0 °F 84% 29.80 in 10.0 mi WSW 12.7 mph - N/A   Clear
7:53 PM 68.0 °F 62.1 °F 81% 29.80 in 10.0 mi WSW 13.8 mph - N/A   Clear
8:53 PM 66.9 °F 61.0 °F 81% 29.81 in 10.0 mi West 15.0 mph 21.9 mph N/A   Partly Cloudy
9:53 PM 66.9 °F 61.0 °F 81% 29.82 in 10.0 mi West 12.7 mph - N/A   Clear
10:53 PM 66.9 °F 61.0 °F 81% 29.83 in 10.0 mi WNW 6.9 mph - N/A   Clear
11:53 PM 64.0 °F 59.0 °F 84% 29.84 in 10.0 mi WNW 5.8 mph - N/A   Clear